Location: Unspecified
(0.0000°N, 0.0000°E)
Time: 05:46:17
(UTC+00:00)

Explorer 7 - Pass Details

Date: 09 October 2020
Orbit: 484 x 678 km, 50.3° (Epoch: 28 October)

Event Time Altitude Azimuth Distance (km) Brightness Sun altitude
Rises 17:11:23 0° 202° (SSW) 2,540 10.6 8.9°
Reaches altitude 10° 17:13:42 10° 191° (SSW) 1,661 9.6 8.3°
Maximum altitude 17:17:04 32° 127° (SE) 855 7.5 7.5°
Drops below altitude 10° 17:20:30 10° 62° (ENE) 1,691 8.8 6.6°
Sets 17:22:52 0° 52° (NE) 2,595 9.7 6.0°
